CDT,Max TemperatureF,Mean TemperatureF,Min TemperatureF,Max Dew PointF,MeanDew PointF,Min DewpointF,Max Humidity, Mean Humidity, Min Humidity, Max Sea Level PressureIn, Mean Sea Level PressureIn, Min Sea Level PressureIn, Max VisibilityMiles, Mean VisibilityMiles, Min VisibilityMiles, Max Wind SpeedMPH, Mean Wind SpeedMPH, Max Gust SpeedMPH,PrecipitationIn, CloudCover, Events, WindDirDegrees
2013-7-1,82,70,59,59,53,46,88,56,30,30.18,30.15,30.13,10,9,7,18,7,23,0.00,1,,26
2013-7-2,82,70,59,59,54,50,88,56,32,30.16,30.11,30.06,10,9,6,17,5,29,0.00,1,,15
2013-7-3,82,70,57,63,55,50,94,59,34,30.08,30.03,29.96,10,10,7,13,3,13,0.00,1,,108
2013-7-4,86,73,60,59,56,52,88,56,31,30.00,29.96,29.92,10,10,9,23,11,32,0.00,0,,184
2013-7-5,87,76,66,63,60,57,73,55,40,29.94,29.91,29.86,10,10,8,26,15,33,0.00,0,,180
2013-7-6,91,81,71,66,63,59,73,55,38,29.92,29.87,29.82,10,10,9,28,17,32,0.00,1,,176
2013-7-7,89,80,71,72,67,64,100,65,46,29.94,29.88,29.84,10,9,3,18,11,37,0.02,2,Rain,205
2013-7-8,89,79,69,72,69,63,100,73,40,30.00,29.96,29.91,10,8,2,15,5,13,0.00,1,,78
2013-7-9,91,82,73,75,70,64,100,72,46,29.96,29.91,29.86,10,9,2,20,9,29,0.04,1,Rain,255
2013-7-10,80,71,62,68,57,52,88,62,37,30.09,30.05,29.97,10,9,8,16,9,23,0.00,0,,360
2013-7-11,84,72,59,59,56,52,94,57,33,30.13,30.08,30.01,10,9,6,18,6,24,0.00,0,,157
2013-7-12,87,76,64,63,60,57,78,57,40,30.05,30.00,29.94,10,10,9,23,15,31,0.00,0,,166
2013-7-13,78,73,68,64,61,57,78,66,57,30.07,30.01,29.96,10,10,8,23,15,32,0.00,1,,154
2013-7-14,86,77,68,64,62,59,83,63,40,30.20,30.12,30.06,10,10,9,18,11,26,0.00,1,,152
2013-7-15,87,76,64,70,66,61,94,68,45,30.25,30.21,30.15,10,9,6,14,7,18,0.00,2,,149
2013-7-16,91,81,71,72,69,64,94,69,41,30.26,30.23,30.20,10,10,8,12,8,17,0.00,0,,194
2013-7-17,93,81,69,72,69,66,94,66,41,30.30,30.25,30.17,10,10,6,14,6,18,0.00,0,,205
2013-7-18,93,82,71,72,69,66,94,67,43,30.18,30.04,29.89,10,9,7,22,11,31,0.00,0,,206
2013-7-19,87,78,68,70,64,55,78,58,37,29.95,29.89,29.81,10,10,8,16,11,24,0.00,0,Rain,302
2013-7-20,84,72,59,64,60,57,100,64,42,29.99,29.94,29.90,10,10,4,13,4,20,0.00,1,,282
2013-7-21,84,76,68,66,64,55,88,71,39,29.94,29.87,29.80,10,10,8,15,6,17,0.00,3,,161
2013-7-22,91,78,66,73,67,59,100,74,49,29.89,29.78,29.70,10,9,2,23,12,31,0.00,3,,222
2013-7-23,73,66,59,59,56,54,94,70,50,30.03,29.97,29.87,10,10,6,15,7,18,0.00,0,,6
2013-7-24,80,66,53,59,55,52,94,66,42,30.09,30.05,30.01,10,10,4,10,3,12,0.00,3,,350
2013-7-25,86,72,59,66,62,55,100,77,45,30.03,29.99,29.92,10,9,1,24,8,29,1.67,3,Rain,199
2013-7-26,71,64,55,68,56,50,100,75,50,30.10,30.03,29.95,10,9,0,22,10,28,0.00,5,Fog,326
2013-7-27,68,59,50,52,46,41,94,66,37,30.11,30.05,29.99,10,10,10,17,8,24,0.00,4,,329
2013-7-28,71,60,48,54,47,43,93,65,35,30.08,30.03,29.98,10,10,9,13,7,20,0.00,0,,333
2013-7-29,77,64,50,59,53,48,100,67,41,30.13,30.10,30.07,10,10,5,15,6,20,0.00,2,,163
2013-7-30,75,68,62,66,63,59,100,86,69,30.10,30.08,30.06,10,10,4,8,5,,0.00,7,,140
2013-7-31,80,70,59,68,61,57,100,78,47,30.12,30.09,30.04,10,7,0,13,4,18,0.00,2,Fog,301